User: anonymous   Login
Location: Trois-Rivi�res
(46.3500°N, 72.5500°W)
Time: 18:43:29
(UTC-04:00)
Language:

Vanguard 1 Rocket - Orbit

View from above orbital plane
View from above orbital plane
View from above satellite
View from above satellite

Ground track
Ground track

The orbit data is extracted from the following two-line orbital elements,

1    16U 58002A   18172.87284275 +.00000105 +00000-0 +17485-3 0  9998
2    16 034.2628 092.7350 2025284 054.1373 323.0872 10.48657619382551
Epoch (UTC): 21 June 2018 20:56:53
Eccentricity: 0.2025284
inclination: 34.2628°
perigee height: 653 km
apogee height: 4224 km
right ascension of ascending node: 92.7350°
argument of perigee: 54.1373°
revolutions per day: 10.48657619
mean anomaly at epoch: 323.0872°
orbit number at epoch: 38255

The dashed part of the orbit path shows where the satellite is in the earth's shadow,  

DLR